This is the latest recevied weather packets stored in our database for station/object KD2DXJ. If no packets are shown the sender has not sent any weather packets the latest 10 day(s).
| Time | Temp. | Humidity | Pressure | Rain* | Wind** | Luminosity | Snow |
|---|---|---|---|---|---|---|---|
| 1777473715 | 15° C | 74% | 1011 hPa | 0 mm | - | 153 W/m² | - |
| 1777473411 | 15° C | 75% | 1011.1 hPa | 0 mm | - | 145 W/m² | - |
| 1777473107 | 15° C | 74% | 1011.1 hPa | 0 mm | - | 138 W/m² | - |
| 1777472804 | 14.44° C | 75% | 1011.4 hPa | 0 mm | - | 132 W/m² | - |
| 1777472500 | 14.44° C | 74% | 1011.2 hPa | 0 mm | - | 131 W/m² | - |
| 1777472197 | 14.44° C | 75% | 1011.4 hPa | 0 mm | - | 121 W/m² | - |
| 1777471893 | 14.44° C | 76% | 1011.5 hPa | 0 mm | - | 98 W/m² | - |
| 1777471590 | 13.89° C | 75% | 1011.2 hPa | 0 mm | - | 91 W/m² | - |
| 1777471286 | 14.44° C | 74% | 1011.4 hPa | 0 mm | - | 78 W/m² | - |
| 1777470983 | 14.44° C | 73% | 1011.5 hPa | 0 mm | - | 105 W/m² | - |
| 1777470680 | 14.44° C | 74% | 1011.5 hPa | 0 mm | - | 124 W/m² | - |
| 1777470376 | 13.89° C | 73% | 1011.5 hPa | 0 mm | - | 122 W/m² | - |
| 1777470073 | 13.89° C | 73% | 1011.5 hPa | 0 mm | - | 75 W/m² | - |
| 1777469769 | 13.89° C | 74% | 1011.6 hPa | 0 mm | - | 104 W/m² | - |
| 1777469465 | 13.89° C | 74% | 1011.9 hPa | 0 mm | - | 75 W/m² | - |
| 1777469165 | 13.89° C | 74% | 1011.6 hPa | 0 mm | - | 72 W/m² | - |
| 1777468865 | 13.89° C | 73% | 1011.5 hPa | 0 mm | - | 73 W/m² | - |
| 1777468562 | 13.89° C | 73% | 1011.6 hPa | 0 mm | - | 84 W/m² | - |
| 1777468259 | 13.33° C | 74% | 1011.6 hPa | 0 mm | - | 79 W/m² | - |
| 1777467955 | 13.33° C | 74% | 1011.4 hPa | 0 mm | - | 45 W/m² | - |
| 1777467651 | 13.33° C | 74% | 1011.7 hPa | 0 mm | - | 27 W/m² | - |
| 1777467346 | 13.33° C | 73% | 1011.8 hPa | 0 mm | - | 59 W/m² | - |
| 1777467043 | 13.33° C | 73% | 1011.8 hPa | 0 mm | - | 30 W/m² | - |
| 1777466740 | 13.33° C | 73% | 1011.9 hPa | 0 mm | - | 30 W/m² | - |
| 1777466438 | 13.89° C | 72% | 1011.8 hPa | 0 mm | - | 35 W/m² | - |
* Rain latest hour (hover to see other rain measurements)
** Current wind speed in m/s (hover to see current wind gust speed)